CZ-2C DEB

Satellite information

Favourite Embed

Satellite Type and Status

DEBRISIN ORBIT

Key statistics

Satellite CZ-2C DEB at a glance.

Uptime

7594

Days in orbit

Revolutions

≈ 14.6

Per day

Orbit

SSO

Sun Synchronous Orbit

Inclination

98.4

Latest

Satellite identification and parameters

Extended collection of information and parameters for CZ-2C DEB.

Object identification

Identified? True

Debris? True

Object name: CZ-2C DEB

International designator: 2004-046F

Object number (NORAD): 28484

Object ID (CCSDS): 28484

Country: PEOPLES REPUBLIC OF CHINA (PRC)

Current information (Y/N): Y

RCS size: SMALL

Orbital parameters

Period: 98.783 minutes

Inclination: 98.3905 deg

SMA: 7078.602 km

Apoapsis: 757.499 km

Periapsis: 643.436 km

RAAN: 319.5991 deg

Eccentricy: 0.00805683

Argument of periapsis: 69.1556 deg

Mean anomaly: 52.6214 deg

Mean motion: 14.5774473 rev/day

Mean motion (dot): 0.00012717 rev/day2

B* drag term: 0.0026683407 1/REarth

Two-line elements (TLE)

Creation date: Sept. 3, 2025, 2:21 a.m.

Reference frame: TEME

Reference center: EARTH

Epoch: Sept. 2, 2025, 6:26 p.m. UTC

TLE line 0: 0 CZ-2C DEB

TLE line 1: 1 28484U 04046F 25245.76816282 .00012717 00000-0 26683-2 0 9993

TLE line 2: 2 28484 98.3905 319.5991 0080568 69.1556 52.6214 14.57744730 91617

Live tracking on map

Real-time ground track for satellite CZ-2C DEB.

In-orbit conjunctions

A list of the most updated potential collisions computed for object CZ-2C DEB.

Target Orbit TCA Probability of collision Miss distance Type
CZ-6A DEB LEO 2025-02-02 16:45:31 0.0004673293 392.0 (m) DEBRIS
SARA SSO 2024-12-11 02:23:09 0.0003501429 518.0 (m) PAYLOAD
IRIDIUM 33 DEB LEO 2024-10-02 12:51:35 0.0001809955 28.0 (m) DEBRIS

Associated space launch

Remote Sensing Technology..

CZ-2C DEB was lifted into orbit during the mission ‘Long March 2C | Shiyan Weixing 2’, on board a Long March 2 space rocket.

The launch took place on Nov. 18, 2004, 10:45 a.m. from Launch Complex 3 (LC-3/LA-1).

For more information about the launch, click the button.

Launch to space Long March 2C | Shiyan Weixing 2
Long March 2C | Shiyan Weixing 2

Agency: N/A

Status: Launch Successful

Launch date: Nov. 18, 2004, 10:45 a.m. UTC

Rocket: Long March 2

Launch pad: Launch Complex 3 (LC-3/LA-1)

Location: Xichang Satellite Launch Center, People's Republic of China

...

Latest news about this satellite

There are no fresh news available about this satellite. Check back as we update our databases every day.


Newsletter sign-up

Weekly statistics, charts and insights to help you stay on top of the space industry.